Hourly Weather Pietrzykowice

Today, 15 July, Wednesday

Time Temperature Precipitation Wind Pressure Humidity
00:00 +13°C° 0 mm 1 mps 724 mmHg 89%
01:00 +12°C° 0 mm 1 mps 724 mmHg 90%
02:00 +12°C° 0 mm 1 mps 723 mmHg 90%
03:00 +12°C° 0 mm 1 mps 723 mmHg 89%
04:00 +12°C° 0 mm 1 mps 723 mmHg 89%
05:00 +14°C° 0 mm 1 mps 723 mmHg 85%
06:00 +15°C° 0 mm 1 mps 723 mmHg 80%
07:00 +18°C° 0 mm 1 mps 723 mmHg 76%
08:00 +20°C° 0 mm 1 mps 723 mmHg 67%
09:00 +22°C° 0 mm 1 mps 723 mmHg 59%
10:00 +23°C° 0 mm 1 mps 724 mmHg 51%
11:00 +24°C° 0 mm 2 mps 723 mmHg 50%
12:00 +24°C° 0 mm 2 mps 723 mmHg 49%
13:00 +25°C° 0 mm 2 mps 723 mmHg 49%
14:00 +24°C° 0.1 mm 2 mps 723 mmHg 53%
15:00 +24°C° 0.1 mm 2 mps 722 mmHg 57%
16:00 +24°C° 0.1 mm 2 mps 722 mmHg 61%
17:00 +21°C° 0.3 mm 2 mps 722 mmHg 68%
18:00 +20°C° 0.3 mm 2 mps 722 mmHg 75%
19:00 +18°C° 0.3 mm 2 mps 721 mmHg 82%
20:00 +17°C° 0 mm 2 mps 722 mmHg 84%
21:00 +16°C° 0 mm 2 mps 722 mmHg 87%
22:00 +15°C° 0 mm 2 mps 722 mmHg 89%
23:00 +15°C° 0 mm 2 mps 722 mmHg 89%

Tomorrow, 16 July, Thursday

Time Temperature Precipitation Wind Pressure Humidity
00:00 +15°C° 0 mm 2 mps 722 mmHg 90%
01:00 +15°C° 0 mm 2 mps 722 mmHg 90%
02:00 +15°C° 0.1 mm 2 mps 722 mmHg 91%
03:00 +15°C° 0.1 mm 2 mps 722 mmHg 93%
04:00 +15°C° 0.1 mm 1 mps 722 mmHg 94%
05:00 +15°C° 0.8 mm 2 mps 722 mmHg 94%
06:00 +15°C° 0.8 mm 2 mps 722 mmHg 95%
07:00 +15°C° 0.8 mm 2 mps 723 mmHg 96%
08:00 +16°C° 0.3 mm 2 mps 723 mmHg 91%
09:00 +16°C° 0.3 mm 1 mps 723 mmHg 87%
10:00 +18°C° 0.3 mm 1 mps 723 mmHg 83%
11:00 +19°C° 0.4 mm 1 mps 723 mmHg 79%
12:00 +19°C° 0.4 mm 2 mps 723 mmHg 75%
13:00 +20°C° 0.4 mm 2 mps 723 mmHg 71%
14:00 +19°C° 1.2 mm 2 mps 723 mmHg 74%
15:00 +19°C° 1.2 mm 2 mps 722 mmHg 78%
16:00 +18°C° 1.2 mm 2 mps 722 mmHg 81%
17:00 +18°C° 0.5 mm 2 mps 722 mmHg 83%
18:00 +18°C° 0.5 mm 1 mps 722 mmHg 85%
19:00 +16°C° 0.5 mm 1 mps 722 mmHg 88%
20:00 +15°C° 0 mm 1 mps 722 mmHg 89%
21:00 +14°C° 0 mm 1 mps 722 mmHg 90%
22:00 +13°C° 0 mm 1 mps 722 mmHg 91%
23:00 +13°C° 0 mm 1 mps 722 mmHg 91%

Day after tomorrow, 17 July, Friday

Time Temperature Precipitation Wind Pressure Humidity
00:00 +13°C° 0 mm 1 mps 722 mmHg 92%
01:00 +13°C° 0 mm 1 mps 722 mmHg 92%
02:00 +12°C° 0 mm 1 mps 722 mmHg 92%
03:00 +12°C° 0 mm 1 mps 722 mmHg 93%
04:00 +11°C° 0 mm 1 mps 722 mmHg 93%
05:00 +13°C° 0.1 mm 1 mps 722 mmHg 90%
06:00 +14°C° 0.1 mm 1 mps 723 mmHg 87%
07:00 +16°C° 0.1 mm 1 mps 723 mmHg 84%
08:00 +18°C° 0.3 mm 1 mps 723 mmHg 77%
09:00 +19°C° 0.3 mm 1 mps 723 mmHg 71%
10:00 +20°C° 0.3 mm 1 mps 723 mmHg 65%
11:00 +20°C° 0.3 mm 1 mps 723 mmHg 63%
12:00 +21°C° 0.3 mm 1 mps 723 mmHg 62%
13:00 +21°C° 0.3 mm 1 mps 723 mmHg 61%
14:00 +21°C° 0.6 mm 1 mps 723 mmHg 63%
15:00 +21°C° 0.6 mm 1 mps 722 mmHg 66%
16:00 +20°C° 0.6 mm 1 mps 722 mmHg 69%
17:00 +19°C° 0.5 mm 1 mps 722 mmHg 74%
18:00 +18°C° 0.5 mm 1 mps 722 mmHg 79%
19:00 +16°C° 0.5 mm 1 mps 722 mmHg 84%
20:00 +14°C° 0.5 mm 0 mps 722 mmHg 86%
21:00 +13°C° 0.5 mm 0 mps 722 mmHg 89%
22:00 +12°C° 0.5 mm 0 mps 723 mmHg 91%
23:00 +12°C° 0.5 mm 0 mps 723 mmHg 92%

18 July, Saturday

Time Temperature Precipitation Wind Pressure Humidity
00:00 +12°C° 0.5 mm 0 mps 723 mmHg 93%
01:00 +12°C° 0.5 mm 0 mps 723 mmHg 94%
02:00 +13°C° 0.3 mm 1 mps 723 mmHg 95%
03:00 +12°C° 0.3 mm 1 mps 723 mmHg 95%
04:00 +12°C° 0.3 mm 1 mps 723 mmHg 96%
05:00 +13°C° 0.2 mm 1 mps 723 mmHg 94%
06:00 +14°C° 0.2 mm 1 mps 723 mmHg 93%
07:00 +15°C° 0.2 mm 1 mps 723 mmHg 92%
08:00 +16°C° 0.4 mm 1 mps 723 mmHg 88%
09:00 +18°C° 0.4 mm 1 mps 723 mmHg 85%
10:00 +19°C° 0.4 mm 1 mps 723 mmHg 82%
11:00 +18°C° 0.6 mm 2 mps 723 mmHg 77%
12:00 +19°C° 0.6 mm 2 mps 723 mmHg 73%
13:00 +20°C° 0.6 mm 2 mps 723 mmHg 69%
14:00 +20°C° 0.8 mm 2 mps 723 mmHg 71%
15:00 +19°C° 0.8 mm 2 mps 723 mmHg 74%
16:00 +19°C° 0.8 mm 2 mps 723 mmHg 77%
17:00 +19°C° 0.3 mm 1 mps 723 mmHg 80%
18:00 +18°C° 0.3 mm 1 mps 723 mmHg 83%
19:00 +15°C° 0.3 mm 0 mps 723 mmHg 86%
20:00 +14°C° 0 mm 0 mps 723 mmHg 87%
21:00 +14°C° 0 mm 1 mps 723 mmHg 88%
22:00 +13°C° 0 mm 1 mps 723 mmHg 89%
23:00 +13°C° 0 mm 1 mps 723 mmHg 89%

19 July, Sunday

Time Temperature Precipitation Wind Pressure Humidity
00:00 +13°C° 0 mm 1 mps 723 mmHg 89%
01:00 +13°C° 0 mm 1 mps 723 mmHg 90%
02:00 +13°C° 0 mm 1 mps 723 mmHg 89%
03:00 +13°C° 0 mm 1 mps 723 mmHg 89%
04:00 +13°C° 0 mm 1 mps 723 mmHg 89%
05:00 +14°C° 0 mm 1 mps 723 mmHg 87%
06:00 +15°C° 0 mm 1 mps 723 mmHg 85%
07:00 +16°C° 0 mm 1 mps 723 mmHg 83%
08:00 +19°C° 0.2 mm 1 mps 724 mmHg 77%
09:00 +21°C° 0.2 mm 1 mps 724 mmHg 71%
10:00 +21°C° 0.2 mm 2 mps 724 mmHg 65%
11:00 +23°C° 0.3 mm 2 mps 724 mmHg 63%
12:00 +24°C° 0.3 mm 3 mps 723 mmHg 60%
13:00 +24°C° 0.3 mm 3 mps 723 mmHg 58%
14:00 +24°C° 0.2 mm 3 mps 723 mmHg 59%
15:00 +24°C° 0.2 mm 3 mps 723 mmHg 61%
16:00 +23°C° 0.2 mm 4 mps 723 mmHg 63%
17:00 +22°C° 0.3 mm 3 mps 723 mmHg 70%
18:00 +20°C° 0.3 mm 2 mps 723 mmHg 78%
19:00 +19°C° 0.3 mm 2 mps 722 mmHg 86%
20:00 +18°C° 0.1 mm 2 mps 723 mmHg 88%
21:00 +17°C° 0.1 mm 2 mps 723 mmHg 90%
22:00 +16°C° 0.1 mm 2 mps 723 mmHg 92%
23:00 +16°C° 0 mm 2 mps 723 mmHg 92%

20 July, Monday

Time Temperature Precipitation Wind Pressure Humidity
00:00 +16°C° 0 mm 2 mps 723 mmHg 92%
01:00 +15°C° 0 mm 2 mps 723 mmHg 93%
02:00 +15°C° 0 mm 2 mps 723 mmHg 93%
03:00 +15°C° 0 mm 2 mps 723 mmHg 92%
04:00 +15°C° 0 mm 2 mps 723 mmHg 92%
05:00 +16°C° 0 mm 1 mps 723 mmHg 89%
06:00 +19°C° 0 mm 1 mps 723 mmHg 86%
07:00 +20°C° 0 mm 1 mps 724 mmHg 82%
08:00 +22°C° 0.2 mm 1 mps 724 mmHg 77%
09:00 +23°C° 0.2 mm 1 mps 724 mmHg 72%
10:00 +24°C° 0.2 mm 1 mps 724 mmHg 66%
11:00 +24°C° 0.7 mm 2 mps 724 mmHg 68%
12:00 +24°C° 0.7 mm 2 mps 724 mmHg 69%
13:00 +24°C° 0.7 mm 2 mps 724 mmHg 71%
14:00 +24°C° 0.9 mm 2 mps 724 mmHg 74%
15:00 +23°C° 0.9 mm 2 mps 724 mmHg 77%
16:00 +23°C° 0.9 mm 1 mps 724 mmHg 80%
17:00 +22°C° 1.1 mm 1 mps 724 mmHg 83%
18:00 +21°C° 1.1 mm 1 mps 724 mmHg 86%
19:00 +20°C° 1.1 mm 1 mps 724 mmHg 88%
20:00 +19°C° 0.4 mm 1 mps 724 mmHg 90%
21:00 +18°C° 0.4 mm 1 mps 724 mmHg 91%
22:00 +15°C° 0.4 mm 0 mps 725 mmHg 92%
23:00 +16°C° 0.4 mm 1 mps 725 mmHg 92%
Show more